Location: Greene
(44.1583°N, 70.1456°W)
Time: 16:06:50
(UTC-04:00)

Envisat - Visible Passes

Search period start: 22 April 2018 00:00
Search period end: 02 May 2018 00:00
Orbit: 764 x 766 km, 98.2° (Epoch: 22 April)

Date Brightness Start Highest point End Pass type
(mag) Time Alt. Az. Time Alt. Az. Time Alt. Az.
22 Apr 5.4 21:10:46 10° SW 21:14:32 21° W 21:18:18 10° NW visible
23 Apr 4.2 20:32:42 10° S 20:37:31 44° W 20:42:23 10° NNW visible
24 Apr 5.8 21:38:39 10° WSW 21:40:25 12° W 21:42:12 10° WNW visible
25 Apr 5.1 20:59:05 10° SSW 21:03:16 26° W 21:07:30 10° NW visible
26 Apr 3.8 20:21:22 10° S 20:26:20 55° W 20:31:21 10° NNW visible
27 Apr 5.7 21:26:15 10° SW 21:29:07 15° W 21:32:00 10° NW visible
28 Apr 4.7 20:47:32 10° SSW 20:52:03 32° W 20:56:35 10° NNW visible
29 Apr 3.4 20:10:07 10° S 20:15:10 70° WSW 20:20:15 10° NNW visible
30 Apr 5.5 21:14:18 10° SW 21:17:51 19° W 21:21:25 10° NW visible
01 May 4.3 20:36:05 10° SSW 20:40:49 40° W 20:45:37 10° NNW visible
